Location: Luna
(33.8188°N, 108.9564°W)
Time: 23:00:39
(UTC+00:00)

BEESAT 3 - Visible Passes

Search period start: 22 March 2023 00:00
Search period end: 01 April 2023 00:00
Orbit: 414 x 441 km, 64.9° (Epoch: 22 March)

Date Brightness Start Highest point End Pass type
(mag) Time Alt. Az. Time Alt. Az. Time Alt. Az.
22 Mar ? 10:40:50 12° ENE 10:40:50 12° ENE 10:41:13 10° NE visible
22 Mar ? 12:14:02 16° NW 12:14:02 16° NW 12:16:14 10° NNW visible
23 Mar ? 11:31:45 20° N 11:31:45 20° N 11:33:10 10° N visible
24 Mar ? 10:49:13 11° NNE 10:49:13 11° NNE 10:49:26 10° NNE visible
